2015-12-15 00:02:57 r, 18.13m,0000000005Hz,0000093151c,0000000.202s, 013.5C,00002195
2015-12-15 00:12:58 r, 17.57m,0000000008Hz,0000055437c,0000000.120s, 013.2C,00002195
2015-12-15 00:22:57 r, 17.21m,0000000012Hz,0000040156c,0000000.087s, 013.2C,00002195
2015-12-15 00:32:57 r, 17.12m,0000000013Hz,0000036722c,0000000.080s, 013.2C,00002195
2015-12-15 00:42:58 r, 17.52m,0000000008Hz,0000053247c,0000000.116s, 012.8C,00002195
2015-12-15 00:52:57 r, 17.30m,0000000011Hz,0000043311c,0000000.094s, 012.8C,00002195
2015-12-15 01:02:57 r, 17.57m,0000000009Hz,0000055434c,0000000.120s, 012.8C,00002195
2015-12-15 01:12:57 r, 17.13m,0000000012Hz,0000037194c,0000000.081s, 012.8C,00002195
2015-12-15 01:22:59 r, 16.81m,0000000016Hz,0000027731c,0000000.060s, 012.8C,00002195
2015-12-15 01:32:57 r, 16.61m,0000000020Hz,0000022945c,0000000.050s, 012.8C,00002195
2015-12-15 01:42:57 r, 17.16m,0000000012Hz,0000038298c,0000000.083s, 012.8C,00002195
2015-12-15 01:52:57 r, 17.89m,0000000006Hz,0000074811c,0000000.162s, 012.8C,00002195
2015-12-15 02:02:57 r, 17.94m,0000000006Hz,0000078645c,0000000.171s, 012.5C,00002195
2015-12-15 02:12:57 r, 17.60m,0000000008Hz,0000056876c,0000000.123s, 012.5C,00002195
2015-12-15 02:22:58 r, 17.68m,0000000008Hz,0000061671c,0000000.134s, 012.2C,00002195
2015-12-15 02:32:57 r, 17.65m,0000000008Hz,0000059440c,0000000.129s, 012.2C,00002195
2015-12-15 02:42:57 r, 17.05m,0000000014Hz,0000034434c,0000000.075s, 012.2C,00002195
2015-12-15 02:52:57 r, 16.78m,0000000017Hz,0000026815c,0000000.058s, 012.2C,00002195
2015-12-15 03:02:57 r, 16.24m,0000000028Hz,0000016321c,0000000.035s, 012.2C,00002195
2015-12-15 03:12:57 r, 16.49m,0000000022Hz,0000020721c,0000000.045s, 012.2C,00002195
2015-12-15 03:22:59 r, 16.43m,0000000024Hz,0000019550c,0000000.042s, 012.2C,00002195
2015-12-15 03:32:57 r, 16.62m,0000000020Hz,0000023151c,0000000.050s, 012.2C,00002195
2015-12-15 03:42:57 r, 16.89m,0000000016Hz,0000029739c,0000000.065s, 012.2C,00002195
2015-12-15 03:52:57 r, 16.62m,0000000020Hz,0000023147c,0000000.050s, 012.2C,00002195
2015-12-15 04:02:57 r, 16.57m,0000000021Hz,0000022083c,0000000.048s, 011.9C,00002195
2015-12-15 04:12:59 r, 16.88m,0000000016Hz,0000029477c,0000000.064s, 011.9C,00002195
2015-12-15 04:22:57 r, 16.89m,0000000016Hz,0000029758c,0000000.065s, 011.9C,00002195
2015-12-15 04:32:57 r, 17.11m,0000000012Hz,0000036364c,0000000.079s, 011.9C,00002195
2015-12-15 04:42:58 r, 17.35m,0000000011Hz,0000045275c,0000000.098s, 011.6C,00002195
2015-12-15 04:52:57 r, 17.50m,0000000009Hz,0000052126c,0000000.113s, 011.6C,00002195
2015-12-15 05:02:57 r, 17.47m,0000000009Hz,0000050775c,0000000.110s, 011.6C,00002195
2015-12-15 05:12:58 r, 17.41m,0000000009Hz,0000048001c,0000000.104s, 011.6C,00002195
2015-12-15 05:22:57 r, 17.39m,0000000010Hz,0000047118c,0000000.102s, 011.2C,00002195
2015-12-15 05:32:57 r, 17.23m,0000000011Hz,0000040515c,0000000.088s, 011.2C,00002195
2015-12-15 05:42:57 r, 16.57m,0000000020Hz,0000022164c,0000000.048s, 011.2C,00002195
2015-12-15 05:52:59 r, 16.24m,0000000029Hz,0000016256c,0000000.035s, 011.2C,00002195
2015-12-15 06:02:57 r, 15.71m,0000000046Hz,0000010051c,0000000.022s, 011.2C,00002195
2015-12-15 06:12:59 r, 15.79m,0000000042Hz,0000010834c,0000000.024s, 011.6C,00002195
2015-12-15 06:22:57 r, 15.61m,0000000050Hz,0000009211c,0000000.020s, 011.6C,00002195
2015-12-15 06:32:57 r, 15.38m,0000000062Hz,0000007420c,0000000.016s, 011.6C,00002195
2015-12-15 06:42:58 r, 15.69m,0000000047Hz,0000009855c,0000000.021s, 011.6C,00002195
2015-12-15 06:52:57 r, 16.47m,0000000022Hz,0000020335c,0000000.044s, 011.6C,00002195
2015-12-15 07:02:57 r, 16.19m,0000000029Hz,0000015645c,0000000.034s, 011.6C,00002195
2015-12-15 07:12:57 r, 15.74m,0000000045Hz,0000010256c,0000000.022s, 011.6C,00002195
2015-12-15 07:22:57 r, 15.09m,0000000082Hz,0000005633c,0000000.012s, 011.6C,00002195
2015-12-15 07:32:57 r, 14.03m,0000000216Hz,0000000000c,0000000.000s, 011.6C,00002195
2015-12-15 07:42:57 r, 12.58m,0000000831Hz,0000000000c,0000000.000s, 011.6C,00002195
2015-12-15 07:52:57 r, 10.79m,0000004300Hz,0000000000c,0000000.000s, 011.6C,00002195
2015-12-15 08:02:57 r, 09.18m,0000018997Hz,0000000000c,0000000.000s, 011.6C,00002195
2015-12-15 08:12:57 r, 07.93m,0000059957Hz,0000000000c,0000000.000s, 011.6C,00002195
2015-12-15 08:22:57 r, 07.13m,0000125811Hz,0000000000c,0000000.000s, 011.6C,00002195
2015-12-15 08:32:57 r, 06.61m,0000200930Hz,0000000000c,0000000.000s, 011.6C,00002195
2015-12-15 08:42:57 r, 06.11m,0000320977Hz,0000000000c,0000000.000s, 011.6C,00002195
2015-12-15 08:52:57 r, 00.00m,0000463831Hz,0000000000c,0000000.000s, 011.6C,00002195
2015-12-15 09:02:57 r, 00.00m,0000562285Hz,0000000000c,0000000.000s, 011.9C,00002195
2015-12-15 09:12:57 r, 00.00m,0000562329Hz,0000000000c,0000000.000s, 011.9C,00002195
2015-12-15 09:22:58 r, 00.00m,0000562379Hz,0000000000c,0000000.000s, 012.2C,00002195
2015-12-15 09:32:57 r, 00.00m,0000562384Hz,0000000000c,0000000.000s, 012.2C,00002195
2015-12-15 09:42:58 r, 00.00m,0000562361Hz,0000000000c,0000000.000s, 012.2C,00002195
2015-12-15 09:52:57 r, 00.00m,0000562505Hz,0000000000c,0000000.000s, 012.8C,00002195
2015-12-15 10:02:57 r, 00.00m,0000562396Hz,0000000000c,0000000.000s, 012.8C,00002195
2015-12-15 10:13:02 r, 00.00m,0000562451Hz,0000000000c,0000000.000s, 012.8C,00002195
2015-12-15 10:22:59 r, 00.00m,0000562470Hz,0000000000c,0000000.000s, 013.2C,00002195
2015-12-15 10:32:57 r, 00.00m,0000562528Hz,0000000000c,0000000.000s, 013.2C,00002195
2015-12-15 10:42:57 r, 00.00m,0000562629Hz,0000000000c,0000000.000s, 013.8C,00002195
2015-12-15 10:52:57 r, 00.00m,0000562717Hz,0000000000c,0000000.000s, 013.8C,00002195
2015-12-15 11:02:57 r, 00.00m,0000562688Hz,0000000000c,0000000.000s, 014.1C,00002195
2015-12-15 11:12:57 r, 00.00m,0000562722Hz,0000000000c,0000000.000s, 014.5C,00002195
2015-12-15 11:22:58 r, 00.00m,0000562635Hz,0000000000c,0000000.000s, 014.5C,00002195
2015-12-15 11:32:57 r, 00.00m,0000562774Hz,0000000000c,0000000.000s, 014.5C,00002195
2015-12-15 11:42:57 r, 00.00m,0000562823Hz,0000000000c,0000000.000s, 014.8C,00002195
2015-12-15 11:52:59 r, 00.00m,0000562859Hz,0000000000c,0000000.000s, 015.1C,00002195
2015-12-15 12:02:57 r, 00.00m,0000562931Hz,0000000000c,0000000.000s, 015.4C,00002195
2015-12-15 12:12:57 r, 00.00m,0000562876Hz,0000000000c,0000000.000s, 016.1C,00002195
2015-12-15 12:22:58 r, 00.00m,0000563198Hz,0000000000c,0000000.000s, 016.7C,00002195
2015-12-15 12:32:57 r, 00.00m,0000563181Hz,0000000000c,0000000.000s, 017.0C,00002195
2015-12-15 12:42:57 r, 00.00m,0000563188Hz,0000000000c,0000000.000s, 017.4C,00002195
2015-12-15 12:52:57 r, 00.00m,0000563191Hz,0000000000c,0000000.000s, 017.7C,00002195
2015-12-15 13:02:57 r, 00.00m,0000563152Hz,0000000000c,0000000.000s, 018.0C,00002195
2015-12-15 13:12:59 r, 00.00m,0000563150Hz,0000000000c,0000000.000s, 017.4C,00002195
2015-12-15 13:22:57 r, 00.00m,0000562991Hz,0000000000c,0000000.000s, 016.7C,00002195
2015-12-15 13:32:57 r, 00.00m,0000563007Hz,0000000000c,0000000.000s, 016.4C,00002195
2015-12-15 13:42:57 r, 00.00m,0000562930Hz,0000000000c,0000000.000s, 016.1C,00002195
2015-12-15 13:52:58 r, 00.00m,0000562937Hz,0000000000c,0000000.000s, 016.1C,00002195
2015-12-15 14:02:57 r, 00.00m,0000563014Hz,0000000000c,0000000.000s, 016.1C,00002195
2015-12-15 14:12:57 r, 00.00m,0000563063Hz,0000000000c,0000000.000s, 016.1C,00002195
2015-12-15 14:22:57 r, 00.00m,0000562785Hz,0000000000c,0000000.000s, 015.4C,00002195
2015-12-15 14:32:58 r, 00.00m,0000562756Hz,0000000000c,0000000.000s, 014.8C,00002195
2015-12-15 14:42:57 r, 00.00m,0000562648Hz,0000000000c,0000000.000s, 014.5C,00002195
2015-12-15 14:52:58 r, 00.00m,0000562671Hz,0000000000c,0000000.000s, 014.1C,00002195
2015-12-15 15:02:58 r, 00.00m,0000562601Hz,0000000000c,0000000.000s, 013.8C,00002195
2015-12-15 15:12:57 r, 00.00m,0000562622Hz,0000000000c,0000000.000s, 013.8C,00002195
2015-12-15 15:22:57 r, 00.00m,0000562623Hz,0000000000c,0000000.000s, 013.5C,00002195
2015-12-15 15:32:59 r, 00.00m,0000562519Hz,0000000000c,0000000.000s, 013.5C,00002195
2015-12-15 15:42:58 r, 00.00m,0000501486Hz,0000000000c,0000000.000s, 013.5C,00002195
2015-12-15 15:52:58 r, 00.00m,0000450449Hz,0000000000c,0000000.000s, 013.2C,00002195
2015-12-15 16:02:57 r, 06.21m,0000293468Hz,0000000000c,0000000.000s, 013.2C,00002195
2015-12-15 16:12:57 r, 06.82m,0000165970Hz,0000000000c,0000000.000s, 013.2C,00002195
2015-12-15 16:22:57 r, 07.41m,0000097139Hz,0000000000c,0000000.000s, 013.2C,00002195
2015-12-15 16:32:58 r, 08.14m,0000049406Hz,0000000000c,0000000.000s, 013.2C,00002195
2015-12-15 16:42:57 r, 09.38m,0000015854Hz,0000000000c,0000000.000s, 013.2C,00002195
2015-12-15 16:52:57 r, 10.97m,0000003624Hz,0000000000c,0000000.000s, 013.2C,00002195
2015-12-15 17:02:58 r, 12.81m,0000000668Hz,0000000000c,0000000.000s, 012.8C,00002195
2015-12-15 17:12:57 r, 13.90m,0000000245Hz,0000000000c,0000000.000s, 012.8C,00002195
2015-12-15 17:22:58 r, 14.45m,0000000148Hz,0000000000c,0000000.000s, 012.8C,00002195
2015-12-15 17:32:57 r, 15.01m,0000000088Hz,0000005251c,0000000.011s, 012.8C,00002195
2015-12-15 17:42:57 r, 14.80m,0000000105Hz,0000004335c,0000000.009s, 012.8C,00002195
2015-12-15 17:52:58 r, 14.87m,0000000100Hz,0000004625c,0000000.010s, 012.8C,00002195
2015-12-15 18:02:59 r, 14.95m,0000000093Hz,0000004992c,0000000.011s, 012.8C,00002195
2015-12-15 18:12:57 r, 14.75m,0000000111Hz,0000004144c,0000000.009s, 012.8C,00002195
2015-12-15 18:22:57 r, 14.70m,0000000116Hz,0000003940c,0000000.009s, 012.8C,00002195
2015-12-15 18:32:59 r, 14.53m,0000000137Hz,0000000000c,0000000.000s, 013.2C,00002195
2015-12-15 18:42:57 r, 14.54m,0000000136Hz,0000000000c,0000000.000s, 012.8C,00002195
2015-12-15 18:52:57 r, 14.60m,0000000129Hz,0000000000c,0000000.000s, 013.2C,00002195
2015-12-15 19:02:58 r, 14.62m,0000000126Hz,0000003681c,0000000.008s, 013.2C,00002195
2015-12-15 19:12:57 r, 14.62m,0000000125Hz,0000003685c,0000000.008s, 013.2C,00002195
2015-12-15 19:22:58 r, 14.58m,0000000131Hz,0000000000c,0000000.000s, 013.2C,00002195
2015-12-15 19:32:58 r, 14.41m,0000000153Hz,0000000000c,0000000.000s, 013.2C,00002195
2015-12-15 19:42:57 r, 14.59m,0000000130Hz,0000000000c,0000000.000s, 013.5C,00002195
2015-12-15 19:52:58 r, 14.44m,0000000149Hz,0000000000c,0000000.000s, 013.5C,00002195
2015-12-15 20:02:57 r, 14.50m,0000000141Hz,0000000000c,0000000.000s, 013.5C,00002195
2015-12-15 20:12:57 r, 14.48m,0000000144Hz,0000000000c,0000000.000s, 013.5C,00002195
2015-12-15 20:22:58 r, 14.49m,0000000142Hz,0000000000c,0000000.000s, 013.2C,00002195
2015-12-15 20:32:59 r, 14.41m,0000000154Hz,0000000000c,0000000.000s, 013.2C,00002195
2015-12-15 20:42:57 r, 14.43m,0000000151Hz,0000000000c,0000000.000s, 013.2C,00002195
2015-12-15 20:52:57 r, 14.39m,0000000156Hz,0000000000c,0000000.000s, 013.5C,00002195
2015-12-15 21:02:58 r, 14.40m,0000000155Hz,0000000000c,0000000.000s, 013.5C,00002195
2015-12-15 21:12:57 r, 14.40m,0000000155Hz,0000000000c,0000000.000s, 013.5C,00002195
2015-12-15 21:22:59 r, 14.38m,0000000157Hz,0000000000c,0000000.000s, 013.8C,00002195
2015-12-15 21:32:58 r, 14.43m,0000000150Hz,0000000000c,0000000.000s, 013.8C,00002195
2015-12-15 21:42:57 r, 14.46m,0000000147Hz,0000000000c,0000000.000s, 013.8C,00002195
2015-12-15 21:52:58 r, 14.41m,0000000153Hz,0000000000c,0000000.000s, 014.1C,00002195
2015-12-15 22:02:57 r, 14.46m,0000000147Hz,0000000000c,0000000.000s, 014.1C,00002195
2015-12-15 22:12:57 r, 14.65m,0000000123Hz,0000003747c,0000000.008s, 014.1C,00002195
2015-12-15 22:22:58 r, 14.72m,0000000113Hz,0000004042c,0000000.009s, 014.1C,00002195
2015-12-15 22:32:59 r, 14.63m,0000000124Hz,0000003697c,0000000.008s, 013.8C,00002195
2015-12-15 22:42:57 r, 14.83m,0000000103Hz,0000004461c,0000000.010s, 013.8C,00002195
2015-12-15 22:52:58 r, 14.69m,0000000117Hz,0000003910c,0000000.008s, 013.8C,00002195
2015-12-15 23:02:59 r, 14.77m,0000000108Hz,0000004214c,0000000.009s, 013.8C,00002195
2015-12-15 23:12:57 r, 14.60m,0000000129Hz,0000000000c,0000000.000s, 013.8C,00002195
2015-12-15 23:22:57 r, 14.64m,0000000123Hz,0000003742c,0000000.008s, 013.8C,00002195
2015-12-15 23:32:57 r, 14.76m,0000000111Hz,0000004184c,0000000.009s, 013.8C,00002195
2015-12-15 23:42:57 r, 14.76m,0000000109Hz,0000004182c,0000000.009s, 013.8C,00002195
2015-12-15 23:52:58 r, 14.62m,0000000125Hz,0000003684c,0000000.008s, 013.5C,00002195
